Погода в Горшовски-Тине

Чехия     49°31′35″N   12°56′36″E
темп.,
°C
ветер,
м/с
пор.,
м/с
влажн.,
%
обл.,
%
осадки,
мм/ч
давл.,
гПа
погр.,
м
17 мая, пн
пн1723:00+9юз5119147 0.0 1005412
02:00+8юз51094100 0.0 1005475
05:00+8юз4996100 0.4 1005603
08:00+8з5109199 0.5 1006965
11:00+10зюз71086100 0.8 10071111
14:00+8з61089100 1.4 10091040
17:00+11з8117890 0.2 10081121
20:00+8зюз7148312 0.4 1010896
18 мая, вт
вт1823:00+8зюз6138722 0.1 1011809
02:00+8зюз71290100 0.2 10121012
05:00+8зюз61292100 0.1 1012925
08:00+8зюз6118799 0.3 1014792
11:00+8зюз5989100 0.1 1014715
14:00+11з687897 0.7 10141080
17:00+11з697626 0.9 10141206
20:00+9з598894 1.5 1015471
19 мая, ср
ср1923:00+5зюз37966 0.0 1017144
02:00+5юз4797100 0.0 1017225
05:00+6зюз5993100 0.0 1017691
08:00+7зюз499297 0.1 1018674
11:00+9з6875100 0.0 10181100
14:00+10з567471 0.1 1018968
17:00+12з456753 0.2 10161214
20:00+9зюз34895 1.3 101767
20 мая, чт
чт2023:00+5зюз22935 0.8 101916
02:00+4юз3294100 1.0 101930
05:00+4юз359692 0.0 1020105
08:00+7з4691100 0.0 1021480
11:00+10з4682100 0.3 1022998
14:00+8зсз359192 0.9 1023419
17:00+10зсз47857 1.7 1023361
20:00+9зсз47878 3.6 1023132
21 мая, пт
пт2123:00+5юз22907 0.2 102517
02:00+4юз32925 0.2 102527
05:00+3юз33925 0.0 102428
08:00+8юз34865 0.0 1023201
11:00+14юз346197 0.0 10201095
14:00+16юз3448100 0.0 10171654
17:00+17юз455498 0.0 10141491
20:00+12юз1171100 0.0 101211